CAPE
212 313 77 80 14 64 80 181 154 192 343 146 202 205 220 303 420 328 178 78 62 92 226 283 371 363 364 256 205 36 133 265 442 806 785 502 251 145 231 844 1462 1492 1656 1699
162 269 115 82 65 86 154 228 234 340 431 289 293 311 231 214 342 257 213 68 78 57 177 313 435 477 496 527 536 523 383 252 684 750 875 613 619 520 493 1131 1943 1875 1867 2076
411 126 233 196 148 177 203 193 170 210 616 545 410 338 348 329 254 269 187 157 61 27 134 297 383 493 494 587 709 803 976 849 958 965 1025 1300 1425 1327 1057 1320 1490 1826 1873 1771
487 313 158 27 13 18 228 144 175 200 392 408 367 325 531 440 389 330 277 215 122 43 76 175 300 310 514 539 635 871 1209 1130 940 1020 1018 1052 830 695 340 718 652 1746 1769 1410
363 254 188 178 0 3 293 327 488 498 381 327 494 295 427 523 465 448 387 362 212 112 47 61 165 250 403 391 489 704 1064 1437 1211 911 1046 1160 1431 946 799 911 1313 1516 857 619
430 408 145 34 62 45 277 464 518 558 343 280 308 231 147 199 397 403 535 409 383 288 189 152 115 161 354 524 531 643 1009 1551 1698 1414 1357 1238 1217 967 869 986 1223 653 51 3
395 227 115 30 153 356 397 360 259 323 400 270 511 176 233 104 350 803 922 885 700 474 494 438 441 433 552 709 814 850 1172 1680 1670 1395 957 834 754 886 852 1250 785 58 4 0
4 27 0 0 66 274 513 284 128 120 192 188 393 40 138 453 825 975 754 600 872 760 650 615 686 813 951 960 1048 1400 408 43 2 20 7 0 0 96 971 858 158 8 4 5
14 0 0 0 0 0 11 236 184 83 170 27 13 8 31 95 561 895 755 505 535 607 936 867 886 874 1165 1248 544 52 3 0 0 0 0 0 0 0 0 3 4 4 2 3
0 0 0 0 0 0 0 11 11 27 26 26 55 20 0 59 517 1085 849 422 297 310 414 578 720 749 585 327 22 1 0 0 0 0 0 0 0 0 0 0 0 2 5 5
0 0 0 0 0 0 0 0 0 0 0 0 0 1 262 395 1261 1295 982 436 382 437 261 242 210 185 147 26 1 1 0 0 0 0 0 0 0 0 2 4 5 4 4 4
0 0 0 0 0 0 0 0 0 0 0 0 0 0 895 1359 1435 1207 812 388 72 136 228 235 293 201 95 50 14 4 1 0 0 0 0 1 1 0 3 3 0 0 1 0
0 0 0 0 0 0 0 0 0 0 0 0 0 0 771 973 1003 759 424 110 45 25 45 30 37 38 35 7 5 30 6 3 4 6 3 2 3 2 2 0 1 0 0 0
0 0 0 0 0 0 0 0 0 0 0 0 0 0 538 560 830 618 219 80 52 55 77 105 79 49 51 52 19 9 3 3 3 3 3 1 0 1 2 1 0 0 0 0
0 0 0 0 0 0 0 0 0 0 0 0 0 15 367 732 800 591 261 170 154 67 118 75 61 26 14 10 10 27 35 10 8 4 5 2 4 0 0 0 0 0 0 0
0 0 0 0 0 0 0 0 8 59 11 77 19 115 908 973 1033 597 372 340 416 339 248 217 167 189 184 124 82 62 22 30 28 0 0 0 0 0 0 0 0 0 0 0
0 0 0 0 0 0 0 2 57 170 447 376 102 1019 1299 1181 1128 959 815 820 787 699 560 370 371 337 209 65 37 35 28 17 9 1 0 0 0 0 0 0 0 0 0 0
0 0 0 0 0 0 4 36 210 367 586 708 946 1423 1462 1347 1255 1086 931 785 895 1052 813 665 652 375 122 51 9 0 0 0 0 0 0 0 0 0 5 5 4 4 4 7
0 0 0 0 4 0 12 45 164 93 448 1352 1456 1480 1438 1299 1131 1116 853 970 1143 1192 1072 944 611 136 2 0 0 0 0 0 0 0 0 0 3 6 13 17 16 30 30 31
0 0 0 1 0 1 29 67 33 5 41 858 1031 1246 1149 1094 620 897 1100 1154 1307 1254 1247 829 5 0 0 0 0 0 0 0 0 0 0 0 0 1 8 18 27 31 26 20
16 32 3 21 0 4 16 8 3 18 54 51 644 1043 1251 909 867 1094 1264 1220 1172 1174 918 33 0 0 0 0 0 0 0 0 0 0 0 3 2 20 31 32 26 24 15 4
40 35 27 6 10 21 32 16 27 160 247 587 978 1225 1334 735 692 926 1272 1406 1245 949 289 0 0 0 0 0 0 0 0 0 0 0 0 21 32 30 22 42 25 38 41 25
28 41 84 40 128 64 49 158 16 73 332 778 881 963 1156 906 487 668 1276 1333 865 497 9 0 0 0 0 3 3 12 0 0 0 0 10 19 33 31 32 36 9 29 55 57
72 56 53 33 38 15 60 40 32 112 260 262 56 29 77 757 250 214 985 642 326 107 0 0 12 4 4 12 17 17 10 25 18 18 26 26 19 22 26 13 11 32 26 20
76 66 132 55 37 25 37 42 66 222 252 124 60 37 15 162 678 419 704 910 458 281 175 93 157 130 72 22 25 13 13 7 0 1 0 0 1 7 3 1 2 5 1 7
30 46 37 60 37 42 0 74 108 125 126 47 4 11 78 372 344 267 500 713 768 577 455 379 431 358 101 59 24 13 4 0 0 0 0 0 0 0 0 1 1 0 0 0
CIN
-58 -3 -14 -10 -48 -11 -2 -1 -2 -0 -19 -6 -0 -1 -3 -29 -21 -12 -24 -51 -59 -29 -19 -8 -4 -1 -1 -4 -12 -60 -39 -22 -17 -2 -1 -2 -2 -8 -3 -1 -6 -12 -3 -2
-35 -2 -18 -15 -30 -23 -2 -1 -1 -8 -22 -19 -2 -2 -3 -20 -21 -17 -34 -60 -46 -21 -31 -11 -2 -7 -11 -2 -2 -16 -31 -31 -23 -1 -1 -2 -2 -1 -2 -1 -5 -18 -21 -17
-1 -36 -23 -18 -5 -4 -1 -2 -7 -7 -18 -42 -40 -15 -12 -38 -56 -41 -46 -65 -109 -98 -24 -8 -5 -13 -15 -11 -21 -30 -33 -31 -24 -11 -2 -0 -1 -3 -1 -1 -1 -2 -19 -34
-2 -6 -39 -105 -119 -46 -3 -18 -25 -17 -16 -2 -42 -1 -42 -41 -60 -62 -65 -78 -99 -149 -82 -11 -8 -18 -12 -21 -16 -24 -34 -55 -47 -23 -2 -3 -3 -3 -2 -1 -2 -1 -2 -16
-5 -2 -2 -1 -0 -90 -7 -49 -24 -21 -13 -23 -14 -16 -3 -61 -56 -57 -65 -62 -78 -90 -117 -84 -46 -22 -20 -14 -10 -28 -31 -27 -42 -41 -19 -2 -9 -2 -2 -1 -3 -0 -30 -55
-3 -5 -38 -71 -57 -75 -59 -37 -32 -25 -20 -2 -5 -15 -3 -5 -32 -50 -64 -89 -66 -66 -61 -61 -56 -27 -18 -22 -21 -25 -34 -29 -23 -37 -28 -14 -7 -11 -2 -2 -1 -14 -109 -0
-2 -10 -22 -101 -30 -43 -30 -2 -3 -2 -2 -2 -22 -24 -8 -25 -65 -112 -126 -108 -97 -86 -65 -38 -27 -17 -19 -25 -31 -22 -17 -4 -0 -9 -13 -8 -3 -1 -1 -0 -0 -73 -0 -0
-11 -16 -0 -0 -14 -2 -2 -4 -5 -6 -4 -3 -40 -20 -10 -45 -110 -190 -288 -342 -177 -139 -73 -36 -12 -19 -46 -52 -25 -0 -148 -282 -38 -350 -355 -0 -0 -117 -0 -0 -61 -14 -0 -0
-27 -0 -0 -0 -0 -0 -3 -8 -3 -26 -10 -25 -4 -2 -71 -38 -56 -145 -240 -389 -351 -347 -167 -55 -48 -50 -54 -42 -229 -350 -0 -0 -0 -0 -0 -0 -0 -0 -0 -0 -0 -0 -0 -0
-0 -0 -0 -0 -0 -0 -0 -6 -22 -14 -1 -3 -8 -4 -1 -9 -12 -123 -263 -431 -531 -493 -423 -368 -294 -295 -312 -334 -247 -0 -0 -0 -0 -0 -0 -0 -0 -0 -0 -0 -0 -0 -0 -0
-0 -0 -0 -0 -0 -0 -0 -0 -0 -0 -0 -0 -0 -0 -19 -15 -30 -85 -276 -463 -491 -443 -506 -468 -472 -449 -431 -449 -0 -0 -0 -0 -0 -0 -0 -0 -0 -0 -0 -0 -0 -0 -0 -0
-0 -0 -0 -0 -0 -0 -0 -0 -0 -0 -0 -0 -0 -0 -105 -104 -158 -242 -332 -470 -584 -531 -464 -438 -383 -425 -469 -464 -424 -0 -0 -0 -0 -1 -0 -0 -0 -0 -0 -0 -0 -0 -0 -0
-0 -0 -0 -0 -0 -0 -0 -0 -0 -0 -0 -0 -0 -0 -179 -227 -223 -328 -417 -511 -551 -571 -549 -537 -528 -522 -526 -556 -487 -368 -62 -0 -0 -0 -0 -0 -0 -0 -0 -0 -0 -0 -0 -0
-0 -0 -0 -0 -0 -0 -0 -0 -0 -0 -0 -0 -0 -0 -85 -201 -224 -321 -433 -486 -501 -481 -451 -442 -450 -457 -436 -384 -429 -444 -0 -0 -0 -0 -0 -0 -0 -0 -0 -0 -0 -0 -0 -0
-0 -0 -0 -0 -0 -0 -0 -0 -0 -0 -0 -0 -0 -16 -20 -85 -175 -287 -391 -380 -385 -443 -394 -404 -446 -497 -510 -477 -457 -366 -308 -346 -306 -0 -0 -0 -0 -0 -0 -0 -0 -0 -0 -0
-0 -0 -0 -0 -0 -0 -0 -0 -55 -41 -57 -44 -37 -11 -89 -127 -166 -261 -320 -303 -262 -295 -335 -333 -353 -291 -250 -261 -254 -251 -313 -284 -262 -0 -0 -0 -0 -0 -0 -0 -0 -0 -0 -0
-0 -0 -0 -0 -0 -0 -0 -4 -20 -47 -32 -22 -13 -36 -83 -113 -119 -149 -157 -141 -111 -132 -171 -244 -223 -195 -246 -333 -338 -280 -243 -202 -192 -0 -1 -1 -0 -0 -0 -0 -0 -0 -0 -0
-0 -0 -0 -0 -0 -0 -34 -89 -65 -28 -21 -28 -33 -59 -56 -59 -54 -72 -100 -120 -86 -53 -90 -122 -106 -199 -245 -308 -137 -0 -0 -0 -0 -0 -0 -0 -0 -0 -1 -0 -0 -0 -0 -0
-0 -0 -0 -0 -5 -0 -15 -41 -35 -17 -6 -32 -30 -41 -42 -45 -50 -51 -101 -81 -45 -28 -41 -45 -83 -226 -61 -0 -0 -0 -0 -0 -0 -0 -0 -0 -1 -1 -1 -1 -1 -1 -1 -1
-0 -0 -0 -0 -0 -0 -6 -48 -67 -15 -4 -27 -24 -20 -25 -49 -10 -12 -57 -60 -34 -23 -12 -54 -89 -0 -0 -0 -0 -0 -0 -0 -0 -0 -0 -0 -0 -1 -1 -1 -1 -1 -1 -1
-8 -5 -4 -4 -1 -1 -48 -42 -26 -10 -30 -62 -29 -23 -15 -6 -49 -45 -42 -47 -55 -45 -62 -144 -0 -0 -0 -0 -0 -0 -0 -0 -0 -0 -0 -0 -1 -0 -0 -0 -0 -0 -1 -1
-3 -4 -5 -5 -2 -3 -56 -45 -20 -61 -86 -46 -23 -17 -5 -52 -63 -51 -27 -28 -42 -70 -135 -0 -0 -0 -0 -0 -0 -0 -0 -0 -0 -0 -0 -1 -0 -1 -1 -7 -1 -6 -8 -3
-10 -5 -4 -7 -4 -95 -71 -60 -65 -99 -52 -24 -19 -24 -9 -17 -45 -46 -31 -32 -54 -66 -172 -0 -0 -0 -0 -86 -68 -42 -0 -0 -0 -0 -6 -1 -1 -1 -1 -1 -1 -1 -3 -2
-63 -98 -14 -32 -31 -50 -60 -79 -112 -84 -36 -39 -58 -113 -84 -1 -65 -75 -17 -33 -53 -95 -0 -0 -116 -74 -71 -76 -68 -38 -24 -45 -19 -9 -1 -1 -1 -1 -1 -1 -2 -2 -3 -3
-36 -87 -24 -18 -27 -40 -58 -59 -54 -54 -47 -52 -66 -97 -136 -49 -2 -19 -12 -16 -34 -49 -72 -88 -54 -48 -59 -57 -65 -36 -27 -17 -0 -0 -0 -0 -1 -1 -1 -1 -1 -1 -1 -2
-47 -14 -8 -4 -15 -18 -0 -40 -45 -46 -37 -73 -82 -28 -76 -8 -5 -25 -17 -23 -32 -35 -53 -51 -39 -33 -37 -50 -47 -39 -30 -0 -0 -0 -0 -0 -0 -0 -0 -1 -1 -0 -0 -0
Wind_Speed
19 19 14 19 23 17 20 19 17 12 17 19 20 19 18 15 18 19 19 19 20 21 17 16 16 18 20 20 22 29 31 30 28 26 27 17 7 4 20 24 24 24 24 22
19 15 11 11 19 19 19 19 14 7 15 16 18 20 13 14 19 19 19 20 21 21 19 16 14 16 16 17 20 18 23 20 13 11 20 22 18 17 21 17 19 21 22 23
18 7 15 17 17 19 20 21 13 17 14 12 13 13 14 19 20 19 18 18 20 21 23 24 16 15 16 15 14 13 12 8 6 4 8 13 18 18 15 13 15 18 20 20
20 13 15 16 16 17 15 17 19 9 11 9 11 17 11 15 15 17 21 14 13 16 19 23 22 19 16 15 11 9 7 7 8 7 8 11 18 17 11 17 18 16 18 19
9 8 11 19 16 17 16 17 15 14 15 19 8 13 14 12 11 10 10 14 16 12 10 12 14 17 17 12 8 6 6 6 9 11 12 12 12 27 23 19 16 16 16 17
20 14 17 18 18 15 14 14 14 15 20 12 13 16 13 15 16 17 16 15 15 11 9 8 5 7 7 9 7 4 4 6 7 8 11 15 22 23 25 20 17 16 17 18
12 16 12 11 15 13 12 16 20 15 11 19 15 19 20 22 18 18 22 22 14 6 8 5 4 5 5 4 3 2 5 7 9 15 18 23 27 25 23 21 17 16 17 18
19 17 11 9 11 23 18 27 26 27 26 25 15 20 18 20 19 19 20 22 24 9 6 5 4 4 6 6 7 8 7 11 12 15 18 22 26 30 29 19 17 18 18 18
23 24 22 20 19 21 20 23 27 32 29 31 32 24 24 18 18 20 21 21 19 16 14 7 12 4 6 5 6 5 7 9 14 16 18 20 23 26 25 23 14 11 17 19
25 30 24 16 18 17 21 24 20 17 29 36 30 26 24 23 17 18 21 20 18 15 13 13 11 8 7 4 5 5 5 7 9 16 22 21 19 19 12 15 18 12 12 15
22 22 26 14 14 18 13 15 18 28 30 33 34 27 20 21 21 19 18 18 18 17 15 13 11 8 6 4 6 7 10 13 11 20 23 16 17 17 16 14 17 15 13 11
16 23 24 25 25 23 28 36 31 28 26 22 28 31 22 20 17 18 18 18 19 18 15 13 11 9 6 5 8 10 13 16 19 14 13 11 13 12 12 14 16 12 11 8
18 21 28 25 16 18 22 22 23 27 29 28 35 33 19 18 19 19 18 18 17 16 14 14 13 12 11 11 11 14 16 14 15 14 13 13 12 13 12 11 10 10 10 9
24 28 29 33 34 25 27 26 26 28 28 29 28 27 18 20 18 17 17 15 14 13 13 12 13 13 12 13 15 14 14 13 12 13 12 12 12 11 11 11 10 11 11 10
24 31 33 36 37 34 34 32 28 27 30 32 32 29 22 20 17 14 12 11 11 11 12 13 13 13 12 13 13 13 13 13 13 13 13 12 12 12 11 11 11 11 11 11
22 34 32 37 35 30 32 27 25 23 25 26 26 22 19 15 13 11 9 8 9 8 8 10 11 11 11 11 12 12 13 12 12 13 13 12 12 12 12 11 11 11 11 13
26 28 27 34 26 25 29 19 20 22 22 23 24 19 15 14 12 9 7 6 6 7 7 8 9 10 11 11 12 12 12 12 12 13 12 12 11 11 11 11 11 12 13 14
22 21 22 25 20 24 19 14 16 19 20 21 20 18 15 11 10 9 8 6 7 7 7 8 10 9 10 10 10 11 12 13 14 14 13 12 11 12 13 14 15 15 13 14
15 16 19 20 13 24 21 19 17 15 18 18 12 10 10 10 11 11 8 7 8 8 9 10 10 10 10 10 12 11 13 13 14 14 13 11 11 13 13 13 14 14 16 16
12 12 14 12 14 27 19 15 16 17 13 10 11 9 8 8 11 9 6 6 9 8 8 8 8 9 10 11 10 12 12 12 12 12 11 11 12 13 13 13 14 16 17 18
9 12 12 16 20 19 17 15 15 11 12 13 11 10 9 12 17 13 6 7 8 7 7 9 9 9 9 10 11 11 11 11 11 11 10 9 10 11 13 15 16 17 17 17
15 13 10 14 16 12 15 11 12 14 13 13 11 10 9 13 14 12 8 7 6 7 8 8 8 8 8 9 9 11 11 11 11 10 8 8 8 8 9 10 12 12 13 15
19 15 17 16 16 14 12 14 12 15 12 12 11 11 10 11 12 11 9 7 7 7 8 8 7 7 8 8 9 11 11 10 9 8 6 5 5 4 5 5 6 5 4 5
10 13 15 17 12 13 12 10 13 11 11 11 12 13 13 9 10 11 10 9 8 7 7 6 6 6 6 7 7 9 11 13 10 8 7 8 7 7 6 7 6 6 8 8
14 10 14 15 15 15 11 8 8 8 10 10 12 14 15 11 8 9 9 8 7 5 5 4 4 4 5 7 7 7 7 6 5 7 9 10 7 6 6 5 4 6 6 6
10 10 11 14 14 16 9 7 8 8 9 9 12 14 16 12 10 10 9 8 6 4 4 3 3 4 5 6 7 8 8 8 9 10 10 11 11 8 6 5 4 2 2 4
Wind_Direction
183 170 222 207 166 254 199 246 156 65 256 219 218 222 200 148 162 160 157 156 162 162 148 145 145 150 157 157 163 184 196 212 215 207 222 283 321 126 275 268 268 272 276 287
173 208 298 338 209 207 205 164 143 247 171 201 259 234 195 162 173 168 162 161 165 165 159 154 150 154 156 160 167 167 178 174 164 292 269 269 285 292 283 295 294 288 287 287
228 264 244 220 209 208 191 229 333 201 180 164 187 197 278 177 181 175 169 163 167 169 172 174 164 165 166 167 169 173 178 189 202 259 293 296 289 292 302 307 308 306 300 300
257 308 277 283 283 250 300 290 274 90 137 38 357 319 64 181 166 172 183 165 160 167 173 180 178 177 177 179 176 183 200 231 242 253 276 284 287 292 299 296 299 307 307 303
348 0 331 293 309 283 313 299 330 346 343 313 47 359 17 32 66 137 162 177 177 167 168 171 173 177 182 179 184 197 215 236 249 259 268 276 281 281 288 293 294 301 309 312
291 318 303 314 315 323 336 339 336 334 317 341 339 330 0 349 350 327 310 176 184 183 174 174 179 177 177 175 186 207 242 252 258 259 266 274 284 287 285 286 289 297 303 307
299 298 309 319 320 329 331 324 312 324 334 321 333 319 310 319 335 327 316 318 329 202 193 187 187 169 169 173 175 266 303 305 303 305 301 296 289 289 288 284 285 290 297 301
300 298 294 308 294 299 304 295 296 296 297 313 335 314 321 327 334 333 333 328 317 318 210 232 219 270 298 308 308 319 341 325 331 326 323 315 305 298 289 281 280 287 292 297
294 293 298 302 304 299 301 294 292 289 292 296 295 307 311 316 323 328 330 335 336 323 312 296 297 281 301 311 330 344 3 356 351 349 342 347 328 311 307 301 285 284 301 294
287 289 291 305 305 309 295 305 302 299 295 287 297 306 311 313 326 325 324 331 340 338 322 311 307 313 322 327 332 335 345 345 10 8 348 346 344 329 353 349 346 346 310 324
289 294 293 303 301 300 312 303 300 293 292 291 293 303 332 325 325 323 327 334 333 330 330 328 323 321 322 327 331 336 320 330 331 330 324 335 331 334 323 347 335 0 340 350
299 297 295 294 299 298 292 281 288 292 299 301 300 300 322 327 333 331 330 337 331 329 335 340 344 350 349 345 331 334 331 334 337 8 13 26 44 40 11 3 336 356 12 42
306 301 297 299 302 307 298 299 294 292 294 294 295 300 326 327 328 328 328 329 332 334 332 330 334 337 341 340 340 337 337 347 6 22 28 31 29 20 22 27 47 49 47 35
299 293 292 288 289 305 301 301 297 293 292 295 297 303 313 320 323 330 332 338 341 341 337 337 338 337 336 334 337 346 357 6 14 20 25 25 34 44 42 35 28 26 22 17
299 291 292 290 288 290 291 291 293 292 291 290 293 303 314 316 323 332 337 339 349 349 346 341 339 340 342 343 350 360 6 13 21 27 26 36 39 42 41 40 30 24 18 6
305 291 293 287 291 292 288 288 291 293 293 295 299 308 319 332 341 343 351 351 352 2 8 357 356 357 350 350 349 356 3 12 17 21 25 29 27 26 25 27 22 12 358 347
302 299 299 293 300 296 288 289 291 293 298 303 305 319 329 332 338 351 4 16 17 12 12 14 356 356 353 353 353 351 357 5 10 7 14 20 23 23 17 16 12 358 350 345
299 302 303 302 305 296 302 317 313 306 308 307 313 322 330 342 356 16 24 48 46 39 23 9 360 359 345 350 359 355 355 353 353 352 2 13 14 6 357 353 350 350 354 349
310 304 304 301 309 297 304 298 302 309 316 322 336 349 354 1 4 359 27 33 31 25 6 0 357 2 1 352 360 351 340 342 343 348 354 5 5 359 357 357 349 353 347 346
323 315 308 325 319 285 306 317 314 312 315 343 355 2 1 8 351 11 26 27 6 9 15 21 45 63 56 40 35 17 21 2 358 357 3 6 3 360 357 354 349 346 344 341
332 319 312 313 303 306 315 315 312 317 334 344 346 348 354 340 334 351 33 26 27 39 45 68 70 64 54 45 30 22 17 10 7 8 21 32 24 9 357 350 349 345 345 346
301 317 339 324 320 321 322 336 319 331 344 351 359 357 359 355 357 4 16 20 33 52 78 82 67 64 58 47 33 18 15 6 6 20 33 27 26 34 28 14 4 360 355 350
290 307 317 310 327 335 336 333 342 336 356 4 5 5 4 1 12 16 24 43 61 83 87 89 76 60 47 47 32 16 18 17 12 20 26 32 38 39 37 35 28 27 21 12
318 317 313 310 336 331 340 350 345 359 11 23 18 11 360 10 11 16 34 61 77 86 95 90 76 64 54 48 37 26 15 358 5 10 10 2 3 8 22 15 19 13 12 12
308 326 318 317 318 319 346 7 22 24 6 18 14 7 358 8 29 26 42 59 73 83 89 95 90 69 51 40 47 56 57 54 67 29 13 7 16 25 19 22 16 9 9 8
312 324 329 331 328 318 4 37 37 25 6 15 6 1 359 2 5 15 27 44 68 97 103 99 90 68 48 46 39 33 37 29 17 18 20 13 12 16 23 21 9 353 252 254